Skip Page Navigation
NASA JPL Caltech
NASA Logo - Jet Propulsion Laboratory + View the NASA Portal
+ Center for Near-Earth Object Studies
JPL Home Earth Solar System Stars & Galaxies Technology
JPL Solar System Dynamics
BODIES ORBITS EPHEMERIDES TOOLS PHYSICAL DATA DISCOVERY FAQ SITE MAP
JPL Small-Body Database Browser
Search: [ help ]  
441857 (2009 WP162)
Classification: Main-belt Asteroid          SPK-ID: 2441857
Ephemeris | Orbit Diagram | Orbital Elements | Mission Design | Physical Parameters | Discovery Circumstances ]

[ show orbit diagram ]
Orbital Elements at Epoch 2459396.5 (2021-Jul-01.0) TDB
Reference: JPL 16 (heliocentric ecliptic J2000)
 Element Value Uncertainty (1-sigma)   Units 
e .2388471415976246 5.4599e-08  
a 2.238513743283185 1.0622e-08 au
q 1.703851134272997 1.1856e-07 au
i 7.859730974069149 6.3714e-06 deg
node 249.900506665348 3.0832e-05 deg
peri 134.3492491427171 3.5557e-05 deg
M 191.7826124834959 1.2253e-05 deg
tp 2459968.118739108234
(2023-Jan-23.61873911)
4.1772e-05 TDB
period 1223.314361951879
3.35
8.7072e-06
2.384e-08
d
yr
n .2942824928709217 2.0946e-09 deg/d
Q 2.773176352293372 1.3159e-08 au
  Orbit Determination Parameters
   # obs. used (total)      133  
   data-arc span      6351 days (17.39 yr)  
   first obs. used      2002-09-02  
   last obs. used      2020-01-22  
   planetary ephem.      DE441  
   SB-pert. ephem.      SB441-N16  
   condition code      0  
   norm. resid. RMS      .57212  
   source      ORB  
   producer      Otto Matic  
   solution date      2021-Apr-14 14:42:14  

Additional Information
 Earth MOID = .718689 au 
 Jupiter MOID = 2.71182 au 
 T_jup = 3.586 
[ show covariance matrix ]

Ephemeris | Orbit Diagram | Orbital Elements | Mission Design | Physical Parameters | Discovery Circumstances ]

Physical Parameter Table
Parameter Symbol Value Units Sigma Reference Notes
absolute magnitude H 18.5   n/a MPO503571  
diameter diameter 1.352 km 0.317 urn:nasa:pds:neowise_diameters_albedos::2.0[mainbelt] (http://adsabs.harvard.edu/abs/2011ApJ...741...68M)  
geometric albedo albedo 0.032   0.024 urn:nasa:pds:neowise_diameters_albedos::2.0[mainbelt] (http://adsabs.harvard.edu/abs/2011ApJ...741...68M)  

441857 (2009 WP162)          Discovered 2009-Nov-21 by Spacewatch at Kitt Peak
Reference: Last Updated: 2015-09-02
Ephemeris | Orbit Diagram | Orbital Elements | Mission Design | Physical Parameters | Discovery Circumstances ]
ABOUT SSD CREDITS/AWARDS PRIVACY/COPYRIGHT GLOSSARY LINKS
FirstGov 2021-Jul-23 20:45 UT
(server date/time)  
NASA Home Page
Site Manager:   Ryan S. Park
Webmaster  Alan B. Chamberlin